Regional Weather Roundup
Issued by NWS

Home | Current Version | Previous Version | Graphics & Text | Print | Product List | Glossary On
Versions: 1 2 3 4 5 6 7 8 9 10 11 12 13 14 15 16 17 18 19 20 21 22 23 24 25 26 27 28 29 30 31 32 33 34 35 36 37 38 39 40 41 42 43 44 45 46 47 48 49 50
000
ASUS44 KMEG 010000
RWRTN
TENNESSEE HOURLY STATE WEATHER ROUNDUP
NATIONAL WEATHER SERVICE MEMPHIS TN
600 PM CST SAT JAN 31 2015

TNZ002-004-019-021-049-052-054-088>092-010100-
WEST TENNESSEE

CITY           SKY/WX    TMP DP  RH WIND       PRES   REMARKS
MEMPHIS INTL   CLOUDY    46  25  43 E7        30.19F
NWS MEMPHIS      N/A     45 N/A N/A MISG        N/A
JACKSON        CLOUDY    44  22  41 E6        30.22F
DYERSBURG      CLOUDY    45  19  36 E6        30.23F
UNION CITY     CLEAR     39  25  56 CALM      30.22F
PARIS          CLEAR     39  23  52 CALM      30.24S
LEXINGTON      PTCLDY    43  21  42 CALM      30.22F
SAVANNAH       CLEAR     45  23  42 CALM      30.23F
$$

TNZ008-025-027-028-033-062-065-066-010100-
NORTH MIDDLE TENNESSEE

CITY           SKY/WX    TMP DP  RH WIND       PRES   REMARKS
NASHVILLE      CLOUDY    44  16  32 CALM      30.28R
CLARKSVILLE    CLOUDY    43  22  43 SE5       30.26S
COOKEVILLE     CLEAR     39  21  48 CALM      30.27S
CROSSVILLE     CLOUDY    41  12  30 CALM      30.27R
$$

TNZ061-075-076-078-094-096-097-010100-
SOUTH MIDDLE TENNESSEE

CITY           SKY/WX    TMP DP  RH WIND       PRES   REMARKS
FAYETTEVILLE   CLEAR     43  18  36 MISG      30.27R
TULLAHOMA      PTCLDY    45  10  24 CALM      30.26F
WINCHESTER     PTCLDY    43  21  42 SE3       30.27F
COLUMBIA       CLEAR     43  19  39 E5        30.25S
SHELBYVILLE    PTCLDY    43  25  49 CALM      30.29R
$$

TNZ017-018-042-046-047-010100-
NORTHEAST TENNESSEE

CITY           SKY/WX    TMP DP  RH WIND       PRES   REMARKS
TRI CITIES     MOCLDY    39  13  34 W5        30.30R
ELIZABETHTON   CLEAR     34  16  47 CALM      30.29R
$$

TNZ012-013-036-069-073-074-010100-
CENTRAL EAST TENNESSEE

CITY           SKY/WX    TMP DP  RH WIND       PRES   REMARKS
KNOXVILLE      CLOUDY    42  15  33 W3        30.30S
OAK RIDGE      CLOUDY    43  17  35 CALM      30.31S
GATLINBURG     MOCLDY    39  10  30 CALM      30.30R
$$

TNZ083-085-099-010100-
SOUTHEAST TENNESSEE

CITY           SKY/WX    TMP DP  RH WIND       PRES   REMARKS
CHATTANOOGA    CLOUDY    45  20  36 N5        30.31R
$$

SKY/WX REPORTED AS FAIR MEANS FEW OR NO CLOUDS BELOW
12 THOUSAND FEET.



USA.gov is the U.S. government's official web portal to all federal, state and local government web resources and services.